Location: Condor
(52.3263°N, 114.5541°W)
Time: 09:21:13
(UTC+00:00)

AO-109 - Visible Passes

Search period start: 02 December 2023 00:00
Search period end: 12 December 2023 00:00
Orbit: 390 x 421 km, 60.7° (Epoch: 01 December)

Date Brightness Start Highest point End Pass type
(mag) Time Alt. Az. Time Alt. Az. Time Alt. Az.
02 Dec ? 12:37:36 10° SE 12:38:34 11° ESE 12:39:31 10° ESE visible
02 Dec ? 14:10:30 10° SW 14:13:40 80° SE 14:16:52 10° NE visible
03 Dec ? 13:20:11 15° SSW 13:22:30 40° SE 13:25:32 10° ENE visible
04 Dec ? 12:31:26 21° ESE 12:31:26 21° ESE 12:33:46 10° ENE visible
04 Dec ? 14:04:10 15° WSW 14:06:41 56° NNW 14:09:51 10° NE visible
05 Dec ? 13:14:56 76° S 13:15:04 79° SE 13:18:17 10° NE visible
05 Dec ? 14:48:18 10° WNW 14:51:02 25° NNW 14:53:47 10° NE visible
06 Dec ? 12:25:20 19° ENE 12:25:20 19° ENE 12:26:26 10° ENE visible
06 Dec ? 13:58:01 27° WNW 13:59:05 35° NNW 14:02:05 10° NE visible
07 Dec ? 13:08:05 36° NNE 13:08:05 36° NNE 13:10:13 10° NE visible
07 Dec ? 14:40:46 10° WNW 14:43:12 21° NNW 14:45:43 10° NE visible
08 Dec ? 12:17:54 12° NE 12:17:54 12° NE 12:18:08 10° NE visible
08 Dec ? 13:50:33 25° NNW 13:50:51 26° NNW 13:53:36 10° NE visible
09 Dec ? 13:00:06 20° NNE 13:00:06 20° NNE 13:01:23 10° NE visible
09 Dec ? 14:32:45 12° NW 14:34:41 19° N 14:37:03 10° NE visible
10 Dec ? 13:42:04 21° N 13:42:04 21° N 13:44:29 10° NE visible
11 Dec ? 12:51:11 14° NNE 12:51:11 14° NNE 12:51:52 10° NE visible
11 Dec ? 14:23:47 13° NW 14:25:28 18° N 14:27:48 10° NE visible
